Regional Weather Roundup
Issued by NWS

Home | Current Version | Previous Version | Graphics & Text | Print | Product List | Glossary On
Versions: 1 2 3 4 5 6 7 8 9 10 11 12 13 14 15 16 17 18 19 20 21 22 23 24 25 26 27 28 29 30 31 32 33 34 35 36 37 38 39 40 41 42 43 44 45 46 47 48 49 50
000
ASUS43 KFSD 281110
RWRSD

WEATHER ROUNDUP FOR SOUTH DAKOTA
NATIONAL WEATHER SERVICE SIOUX FALLS SD
500 AM CST WED JAN 28 2015

NOTE: "FAIR" INDICATES FEW OR NO CLOUDS BELOW 12,000 FEET WITH NO
SIGNIFICANT WEATHER AND/OR OBSTRUCTIONS TO VISIBILITY.


SDZ001>005-009-010-012>017-281200-
NORTHWEST AND NORTH CENTRAL SOUTH DAKOTA

CITY           SKY/WX    TMP DP  RH WIND       PRES   REMARKS
BUFFALO          N/A     38  31  76 W13       29.72R
FAITH            N/A     42  30  62 NW12      29.72F
MOBRIDGE       CLOUDY    30  28  92 CALM      29.70S
$$

SDZ012>016-024>037-041>051-057-063-072>074-281200-
SOUTHWEST AND SOUTH CENTRAL SOUTH DAKOTA

CITY           SKY/WX    TMP DP  RH WIND       PRES   REMARKS
RAPID CTY ARPT MOCLDY    43  27  53 NW9       29.76F
PIERRE         CLOUDY    30  29  96 NW6       29.69S WCI  24
CUSTER         PTCLDY    39  26  59 W8        29.87R
ELLSWORTH AFB  MOCLDY    42  27  55 VRB1      29.76F
PHILIP         MOCLDY    37  28  70 W10       29.73F
PINE RIDGE     MOCLDY    45  29  53 W8        29.83F
WINNER         FAIR      52  31  44 S8        29.72F
$$

SDZ004>011-016>023-039-040-281200-
NORTHEAST SOUTH DAKOTA

CITY           SKY/WX    TMP DP  RH WIND       PRES   REMARKS
ABERDEEN       MOCLDY    30  27  88 CALM      29.76F
WATERTOWN      PTCLDY    33  30  88 S12       29.77F WCI  24
SISSETON         N/A     32  32 100 S14       29.80F WCI  22
$$

SDZ017-020-022-023-036>040-048>070-281200-
SOUTHEAST SOUTH DAKOTA

CITY           SKY/WX    TMP DP  RH WIND       PRES   REMARKS
SIOUX FALLS    MOCLDY    34  30  85 SE14      29.83F WCI  25
HURON          PTCLDY    34  30  85 S12       29.74F WCI  25
CHAMBERLAIN    MOCLDY    32  30  93 E5        29.70F WCI  27
MITCHELL       MOCLDY    35  31  85 SE16      29.77F WCI  25
YANKTON        PTCLDY    34  28  80 SE9       29.84F WCI  26
$$

ABBREVIATIONS USED IN REMARKS
   TC - TEMPERATURE IN CELSIUS
  WCI - WIND CHILL INDEX
   HX - HEAT INDEX
  VSB - VISIBILITY




USA.gov is the U.S. government's official web portal to all federal, state and local government web resources and services.